Location: Roc des P�zouls
(43.9667°N, 3.5500°E)
Time: 02:45:26
(UTC+00:00)

Cosmos 2173 Rocket - Pass Details

Date: 14 November 2019
Orbit: 944 x 1001 km, 83.0° (Epoch: 09 December)

Event Time Altitude Azimuth Distance (km) Brightness Sun altitude
Rises 05:44:15 0° 204° (SSW) 3,689 6.9 -10.0°
Reaches altitude 10° 05:46:52 10° 210° (SSW) 2,738 6.2 -9.6°
Maximum altitude 05:52:54 48° 283° (WNW) 1,262 4.2 -8.5°
Drops below altitude 10° 05:58:54 10° 357° (N) 2,716 6.1 -7.5°
Sets 06:01:30 0° 4° (N) 3,658 6.9 -7.1°
